Location: Wells
(51.2093°N, 2.6446°W)
Time: 07:12:24
(UTC+01:00)

PCSat - Pass Details

Date: 12 March 2026
Orbit: 780 x 790 km, 67.1° (Epoch: 13 April)

Event Time Altitude Azimuth Distance (km) Brightness Sun altitude
Exits shadow 00:26:03 12° 34° (NNE) 2,195 12.3 -42.2°
Drops below altitude 10° 00:26:29 10° 34° (NE) 2,363 12.5 -42.2°
Sets 00:28:56 0° 37° (NE) 3,297 13.4 -42.1°
